Time,TemperatureF,DewpointF,PressureIn,WindDirection,WindDirectionDegrees,WindSpeedMPH,WindSpeedGustMPH,Humidity,HourlyPrecipIn,Conditions,Clouds,dailyrainin,SoftwareType,DateUTC
2013-06-08 00:00:00,56.3,55.5,27.17,North,7,2.9,4.7,96,0.00,--,--,0.00,awk and wget,2013-06-08 04:00:00,
2013-06-08 00:05:00,56.1,55.3,27.17,North,359,2.5,4.7,96,0.00,--,--,0.00,awk and wget,2013-06-08 04:05:00,
2013-06-08 00:10:00,55.6,54.8,27.17,North,4,1.3,4.7,96,0.00,--,--,0.00,awk and wget,2013-06-08 04:10:00,
2013-06-08 00:15:00,55.4,54.6,27.17,NNW,332,0.5,4.9,97,0.00,--,--,0.00,awk and wget,2013-06-08 04:15:00,
2013-06-08 00:20:00,55.4,54.6,27.17,NNW,332,0.0,4.9,97,0.00,--,--,0.00,awk and wget,2013-06-08 04:20:00,
2013-06-08 00:25:00,55.1,54.3,27.17,NNW,332,0.7,4.9,97,0.00,--,--,0.00,awk and wget,2013-06-08 04:25:00,
2013-06-08 00:30:00,55.2,54.5,27.17,NNE,16,2.6,4.5,97,0.00,--,--,0.00,awk and wget,2013-06-08 04:30:00,
2013-06-08 00:35:00,55.1,54.5,27.17,NNE,27,2.1,5.1,97,0.00,--,--,0.00,awk and wget,2013-06-08 04:35:00,
2013-06-08 00:40:00,55.0,54.3,27.17,NNE,20,1.9,6.6,97,0.00,--,--,0.00,awk and wget,2013-06-08 04:40:00,
2013-06-08 00:45:00,54.9,54.3,27.18,NNE,17,1.3,6.6,97,0.00,--,--,0.00,awk and wget,2013-06-08 04:45:00,
2013-06-08 00:50:00,54.7,54.1,27.18,NNW,346,0.7,6.6,97,0.00,--,--,0.00,awk and wget,2013-06-08 04:50:00,
2013-06-08 01:00:00,54.2,53.6,27.18,NNW,346,0.3,5.3,97,0.00,--,--,0.00,awk and wget,2013-06-08 05:00:00,
2013-06-08 01:05:00,54.2,53.7,27.18,East,85,2.7,6.9,97,0.00,--,--,0.00,awk and wget,2013-06-08 05:05:00,
2013-06-08 01:10:00,54.4,53.9,27.18,East,101,2.5,8.2,98,0.00,--,--,0.00,awk and wget,2013-06-08 05:10:00,
2013-06-08 01:15:00,54.4,53.9,27.18,NE,55,2.0,8.2,98,0.00,--,--,0.00,awk and wget,2013-06-08 05:15:00,
2013-06-08 01:20:00,54.5,54.1,27.18,NNE,33,3.1,8.2,98,0.00,--,--,0.00,awk and wget,2013-06-08 05:20:00,
2013-06-08 01:25:00,54.3,53.9,27.17,NNE,16,2.5,10.6,98,0.00,--,--,0.00,awk and wget,2013-06-08 05:25:00,
2013-06-08 01:30:00,54.2,53.8,27.17,NE,46,3.7,10.6,98,0.00,--,--,0.00,awk and wget,2013-06-08 05:30:00,
2013-06-08 01:35:00,54.3,53.9,27.17,ENE,67,3.0,10.6,98,0.00,--,--,0.00,awk and wget,2013-06-08 05:35:00,
2013-06-08 01:40:00,54.2,53.8,27.17,ENE,71,2.1,8.5,98,0.00,--,--,0.00,awk and wget,2013-06-08 05:40:00,
2013-06-08 01:45:00,54.3,53.9,27.17,ENE,68,0.7,6.2,98,0.00,--,--,0.00,awk and wget,2013-06-08 05:45:00,
2013-06-08 01:50:00,54.1,53.7,27.17,ESE,111,1.9,6.2,98,0.00,--,--,0.00,awk and wget,2013-06-08 05:50:00,
2013-06-08 02:00:00,53.5,53.1,27.18,SSE,153,0.7,6.4,98,0.00,--,--,0.00,awk and wget,2013-06-08 06:00:00,
2013-06-08 02:10:00,53.4,53.0,27.17,NNE,13,2.3,6.7,98,0.00,--,--,0.00,awk and wget,2013-06-08 06:10:00,
2013-06-08 02:20:00,53.7,53.4,27.17,North,10,4.7,7.5,98,0.00,--,--,0.00,awk and wget,2013-06-08 06:20:00,
2013-06-08 02:30:00,53.5,53.1,27.18,NE,46,2.1,7.5,98,0.00,--,--,0.00,awk and wget,2013-06-08 06:30:00,
2013-06-08 02:40:00,53.0,52.6,27.18,ENE,64,1.9,6.7,98,0.00,--,--,0.00,awk and wget,2013-06-08 06:40:00,
2013-06-08 02:45:00,53.2,52.9,27.18,East,100,4.2,6.7,98,0.00,--,--,0.00,awk and wget,2013-06-08 06:45:00,
2013-06-08 02:50:00,53.1,52.8,27.18,ENE,70,1.4,6.4,98,0.00,--,--,0.00,awk and wget,2013-06-08 06:50:00,
2013-06-08 02:55:00,53.2,52.9,27.18,NE,45,2.5,6.4,98,0.00,--,--,0.00,awk and wget,2013-06-08 06:55:00,
2013-06-08 03:00:00,52.9,52.6,27.18,NE,46,3.0,6.4,98,0.00,--,--,0.00,awk and wget,2013-06-08 07:00:00,
2013-06-08 03:10:00,53.0,52.6,27.18,NNE,30,5.4,7.7,98,0.00,--,--,0.00,awk and wget,2013-06-08 07:10:00,
2013-06-08 03:15:00,53.0,52.7,27.18,NNE,30,4.3,7.9,98,0.00,--,--,0.00,awk and wget,2013-06-08 07:15:00,
2013-06-08 03:20:00,53.3,53.0,27.18,NE,44,3.6,7.9,98,0.00,--,--,0.00,awk and wget,2013-06-08 07:20:00,
2013-06-08 03:30:00,53.1,52.8,27.18,NE,39,3.9,6.6,98,0.00,--,--,0.00,awk and wget,2013-06-08 07:30:00,
2013-06-08 03:40:00,53.1,52.8,27.18,ENE,78,2.9,6.6,98,0.00,--,--,0.00,awk and wget,2013-06-08 07:40:00,
2013-06-08 03:45:00,53.1,52.8,27.18,NE,39,2.7,6.0,98,0.00,--,--,0.00,awk and wget,2013-06-08 07:45:00,
2013-06-08 03:50:00,53.1,52.9,27.18,NNE,29,4.9,6.2,98,0.00,--,--,0.00,awk and wget,2013-06-08 07:50:00,
2013-06-08 04:00:00,53.0,52.8,27.18,NNE,24,2.2,6.2,98,0.00,--,--,0.00,awk and wget,2013-06-08 08:00:00,
2013-06-08 04:05:00,53.1,52.8,27.18,East,80,1.1,5.0,99,0.00,--,--,0.00,awk and wget,2013-06-08 08:05:00,
2013-06-08 04:10:00,53.0,52.7,27.18,ENE,67,2.3,5.5,98,0.00,--,--,0.00,awk and wget,2013-06-08 08:10:00,
2013-06-08 04:15:00,52.9,52.6,27.19,NNE,26,2.7,5.5,99,0.00,--,--,0.00,awk and wget,2013-06-08 08:15:00,
2013-06-08 04:20:00,52.9,52.7,27.19,NNE,29,1.8,5.5,99,0.00,--,--,0.00,awk and wget,2013-06-08 08:20:00,
2013-06-08 04:25:00,52.7,52.4,27.19,NNE,22,1.3,5.5,99,0.00,--,--,0.00,awk and wget,2013-06-08 08:25:00,
2013-06-08 04:30:00,52.6,52.3,27.19,NNE,18,1.3,5.5,99,0.00,--,--,0.00,awk and wget,2013-06-08 08:30:00,
2013-06-08 04:35:00,52.6,52.3,27.19,North,350,0.2,4.6,98,0.00,--,--,0.00,awk and wget,2013-06-08 08:35:00,
2013-06-08 04:40:00,52.9,52.6,27.19,North,350,0.6,4.6,99,0.00,--,--,0.00,awk and wget,2013-06-08 08:40:00,
2013-06-08 04:45:00,52.7,52.5,27.19,North,349,0.0,4.6,99,0.00,--,--,0.00,awk and wget,2013-06-08 08:45:00,
2013-06-08 04:50:00,52.6,52.3,27.19,North,352,0.9,4.6,98,0.00,--,--,0.00,awk and wget,2013-06-08 08:50:00,
2013-06-08 04:55:00,52.6,52.3,27.19,North,352,0.0,4.3,99,0.00,--,--,0.00,awk and wget,2013-06-08 08:55:00,
2013-06-08 05:00:00,52.6,52.4,27.19,North,352,0.3,4.3,99,0.00,--,--,0.00,awk and wget,2013-06-08 09:00:00,
2013-06-08 05:05:00,52.7,52.4,27.20,North,352,1.0,4.3,99,0.00,--,--,0.00,awk and wget,2013-06-08 09:05:00,
2013-06-08 05:10:00,52.3,52.1,27.20,NNW,345,1.6,4.3,99,0.00,--,--,0.00,awk and wget,2013-06-08 09:10:00,
2013-06-08 05:15:00,52.2,51.9,27.20,NNW,335,1.3,5.5,98,0.00,--,--,0.00,awk and wget,2013-06-08 09:15:00,
2013-06-08 05:20:00,52.7,52.4,27.21,NNW,330,3.4,6.4,99,0.00,--,--,0.00,awk and wget,2013-06-08 09:20:00,
2013-06-08 05:30:00,52.3,52.0,27.21,NNW,330,6.9,8.3,99,0.00,--,--,0.00,awk and wget,2013-06-08 09:30:00,
2013-06-08 05:35:00,52.3,52.0,27.22,NNW,331,3.3,8.3,99,0.00,--,--,0.00,awk and wget,2013-06-08 09:35:00,
2013-06-08 05:40:00,52.6,52.4,27.22,NNW,330,3.1,8.3,99,0.00,--,--,0.00,awk and wget,2013-06-08 09:40:00,
2013-06-08 05:45:00,52.6,52.4,27.22,NNW,330,2.2,6.4,99,0.00,--,--,0.00,awk and wget,2013-06-08 09:45:00,
2013-06-08 05:50:00,52.5,52.3,27.22,NNW,330,2.4,6.2,99,0.00,--,--,0.00,awk and wget,2013-06-08 09:50:00,
2013-06-08 06:00:00,52.8,52.6,27.22,NNW,330,1.2,4.3,99,0.00,--,--,0.00,awk and wget,2013-06-08 10:00:00,
2013-06-08 06:05:00,52.7,52.5,27.22,ESE,113,1.2,5.3,99,0.00,--,--,0.00,awk and wget,2013-06-08 10:05:00,
2013-06-08 06:10:00,52.7,52.5,27.23,ESE,114,0.7,5.3,99,0.00,--,--,0.00,awk and wget,2013-06-08 10:10:00,
2013-06-08 06:15:00,52.6,52.4,27.23,ESE,119,0.7,5.3,99,0.00,--,--,0.00,awk and wget,2013-06-08 10:15:00,
2013-06-08 06:20:00,52.7,52.5,27.23,NE,50,1.8,4.7,99,0.00,--,--,0.00,awk and wget,2013-06-08 10:20:00,
2013-06-08 06:25:00,52.7,52.5,27.23,ENE,66,2.0,5.5,99,0.00,--,--,0.00,awk and wget,2013-06-08 10:25:00,
2013-06-08 06:30:00,52.7,52.5,27.23,East,81,2.4,5.5,99,0.00,--,--,0.00,awk and wget,2013-06-08 10:30:00,
2013-06-08 06:35:00,52.8,52.6,27.23,East,101,2.2,5.5,99,0.00,--,--,0.00,awk and wget,2013-06-08 10:35:00,
2013-06-08 06:40:00,52.8,52.7,27.23,NE,53,3.2,5.5,99,0.00,--,--,0.00,awk and wget,2013-06-08 10:40:00,
2013-06-08 06:45:00,52.8,52.7,27.23,NNE,27,3.7,6.7,99,0.00,--,--,0.00,awk and wget,2013-06-08 10:45:00,
2013-06-08 06:50:00,52.9,52.8,27.23,ENE,77,2.3,6.7,99,0.00,--,--,0.00,awk and wget,2013-06-08 10:50:00,
2013-06-08 06:55:00,53.1,52.9,27.23,ENE,78,3.6,6.7,99,0.00,--,--,0.00,awk and wget,2013-06-08 10:55:00,
2013-06-08 07:00:00,53.4,53.3,27.23,NE,44,2.9,7.2,99,0.00,--,--,0.00,awk and wget,2013-06-08 11:00:00,
2013-06-08 07:05:00,53.5,53.3,27.24,North,7,4.0,7.2,99,0.00,--,--,0.00,awk and wget,2013-06-08 11:05:00,
2013-06-08 07:10:00,53.4,53.3,27.24,NNE,14,0.6,7.2,99,0.00,--,--,0.00,awk and wget,2013-06-08 11:10:00,
2013-06-08 07:15:00,53.4,53.3,27.25,North,359,0.7,7.2,99,0.00,--,--,0.00,awk and wget,2013-06-08 11:15:00,
2013-06-08 07:20:00,53.6,53.4,27.25,North,359,0.7,7.0,99,0.00,--,--,0.00,awk and wget,2013-06-08 11:20:00,
2013-06-08 07:30:00,53.7,53.5,27.25,SE,144,1.2,7.0,99,0.00,--,--,0.00,awk and wget,2013-06-08 11:30:00,
2013-06-08 07:35:00,53.7,53.5,27.26,SE,142,0.0,6.4,99,0.00,--,--,0.00,awk and wget,2013-06-08 11:35:00,
2013-06-08 07:40:00,53.7,53.6,27.26,NNW,330,4.3,7.3,99,0.00,--,--,0.00,awk and wget,2013-06-08 11:40:00,
2013-06-08 07:45:00,53.8,53.6,27.27,NNW,330,3.6,7.3,99,0.00,--,--,0.00,awk and wget,2013-06-08 11:45:00,
2013-06-08 07:50:00,53.8,53.7,27.26,NNW,331,1.5,7.4,99,0.00,--,--,0.00,awk and wget,2013-06-08 11:50:00,
2013-06-08 08:00:00,53.9,53.8,27.27,NNW,331,1.4,7.4,99,0.00,--,--,0.00,awk and wget,2013-06-08 12:00:00,
2013-06-08 08:10:00,54.1,53.9,27.27,NNW,330,1.1,6.4,99,0.00,--,--,0.00,awk and wget,2013-06-08 12:10:00,
2013-06-08 08:15:00,54.1,54.0,27.27,NNW,329,2.0,6.4,99,0.00,--,--,0.00,awk and wget,2013-06-08 12:15:00,
2013-06-08 08:20:00,54.3,54.1,27.27,NNW,332,1.0,5.9,99,0.00,--,--,0.00,awk and wget,2013-06-08 12:20:00,
2013-06-08 08:30:00,54.6,54.4,27.27,NNW,330,0.7,5.9,99,0.00,--,--,0.00,awk and wget,2013-06-08 12:30:00,
2013-06-08 08:35:00,54.7,54.5,27.27,NNW,330,1.3,5.3,99,0.00,--,--,0.00,awk and wget,2013-06-08 12:35:00,
2013-06-08 08:40:00,54.9,54.6,27.28,NNW,343,1.2,4.4,99,0.00,--,--,0.00,awk and wget,2013-06-08 12:40:00,
2013-06-08 08:45:00,54.8,54.6,27.28,NNW,341,1.8,5.2,99,0.00,--,--,0.00,awk and wget,2013-06-08 12:45:00,
2013-06-08 08:50:00,55.1,54.8,27.28,NNW,339,1.4,5.2,99,0.00,--,--,0.00,awk and wget,2013-06-08 12:50:00,
2013-06-08 09:00:00,55.9,55.7,27.28,NNW,343,1.2,4.6,99,0.00,--,--,0.00,awk and wget,2013-06-08 13:00:00,
2013-06-08 09:10:00,56.8,56.5,27.28,NNW,330,0.4,4.7,98,0.00,--,--,0.00,awk and wget,2013-06-08 13:10:00,
2013-06-08 09:15:00,56.8,56.4,27.28,East,92,0.5,4.9,98,0.00,--,--,0.00,awk and wget,2013-06-08 13:15:00,
2013-06-08 09:20:00,56.9,56.2,27.27,East,94,2.4,6.6,97,0.00,--,--,0.00,awk and wget,2013-06-08 13:20:00,
2013-06-08 09:25:00,57.0,56.1,27.27,East,87,4.3,7.5,96,0.00,--,--,0.00,awk and wget,2013-06-08 13:25:00,
2013-06-08 09:30:00,57.1,55.8,27.27,North,4,4.4,7.5,95,0.00,--,--,0.00,awk and wget,2013-06-08 13:30:00,
2013-06-08 09:35:00,57.4,55.9,27.27,NNE,33,4.0,8.2,94,0.00,--,--,0.00,awk and wget,2013-06-08 13:35:00,
2013-06-08 09:40:00,57.3,55.3,27.27,North,353,3.7,8.8,93,0.00,--,--,0.00,awk and wget,2013-06-08 13:40:00,
2013-06-08 09:45:00,58.1,55.8,27.27,NNW,342,1.7,8.8,91,0.00,--,--,0.00,awk and wget,2013-06-08 13:45:00,
2013-06-08 09:50:00,58.8,55.6,27.28,NNW,338,3.5,8.8,89,0.00,--,--,0.00,awk and wget,2013-06-08 13:50:00,
2013-06-08 10:00:00,60.0,54.6,27.27,NNE,14,2.1,8.5,82,0.00,--,--,0.00,awk and wget,2013-06-08 14:00:00,
2013-06-08 10:05:00,60.3,55.0,27.27,North,355,2.9,7.9,82,0.00,--,--,0.00,awk and wget,2013-06-08 14:05:00,
2013-06-08 10:10:00,60.0,54.1,27.27,East,82,2.4,7.7,80,0.00,--,--,0.00,awk and wget,2013-06-08 14:10:00,
2013-06-08 10:15:00,60.9,54.4,27.27,East,84,0.4,7.7,79,0.00,--,--,0.00,awk and wget,2013-06-08 14:15:00,
2013-06-08 10:20:00,61.6,54.7,27.28,SSE,148,2.3,6.7,78,0.00,--,--,0.00,awk and wget,2013-06-08 14:20:00,
2013-06-08 10:30:00,61.8,54.6,27.28,NE,44,2.4,8.8,77,0.00,--,--,0.00,awk and wget,2013-06-08 14:30:00,
2013-06-08 10:35:00,62.5,55.6,27.28,NNW,328,4.0,8.8,78,0.00,--,--,0.00,awk and wget,2013-06-08 14:35:00,
2013-06-08 10:40:00,62.8,55.9,27.29,NNW,328,4.8,11.3,78,0.00,--,--,0.00,awk and wget,2013-06-08 14:40:00,
2013-06-08 10:45:00,62.0,54.3,27.28,NNW,327,4.2,11.3,75,0.00,--,--,0.00,awk and wget,2013-06-08 14:45:00,
2013-06-08 10:50:00,63.1,55.7,27.28,NNW,329,2.9,11.3,76,0.00,--,--,0.00,awk and wget,2013-06-08 14:50:00,
2013-06-08 11:00:00,63.9,55.7,27.28,NNW,327,4.2,10.4,74,0.00,--,--,0.00,awk and wget,2013-06-08 15:00:00,
2013-06-08 11:05:00,63.9,53.6,27.28,SE,138,4.5,10.4,69,0.00,--,--,0.00,awk and wget,2013-06-08 15:05:00,
2013-06-08 11:10:00,64.8,54.5,27.29,NNW,333,3.2,10.8,69,0.00,--,--,0.00,awk and wget,2013-06-08 15:10:00,
2013-06-08 11:15:00,65.5,54.6,27.29,NW,326,5.5,10.8,67,0.00,--,--,0.00,awk and wget,2013-06-08 15:15:00,
2013-06-08 11:20:00,65.7,55.5,27.29,SE,141,3.7,11.1,69,0.00,--,--,0.00,awk and wget,2013-06-08 15:20:00,
2013-06-08 11:25:00,65.8,54.9,27.29,NNW,338,4.2,11.1,67,0.00,--,--,0.00,awk and wget,2013-06-08 15:25:00,
2013-06-08 11:30:00,66.9,57.3,27.29,East,96,5.5,11.2,71,0.00,--,--,0.00,awk and wget,2013-06-08 15:30:00,
2013-06-08 11:35:00,67.2,55.4,27.29,NNW,330,5.5,11.2,65,0.00,--,--,0.00,awk and wget,2013-06-08 15:35:00,
2013-06-08 11:40:00,66.4,54.1,27.29,NNW,328,5.2,11.2,64,0.00,--,--,0.00,awk and wget,2013-06-08 15:40:00,
2013-06-08 11:45:00,67.7,55.4,27.29,NNW,329,6.2,11.4,64,0.00,--,--,0.00,awk and wget,2013-06-08 15:45:00,
2013-06-08 11:50:00,67.9,55.7,27.29,NNW,327,2.8,11.4,65,0.00,--,--,0.00,awk and wget,2013-06-08 15:50:00,
2013-06-08 11:55:00,68.3,58.1,27.30,NNW,327,2.2,11.4,69,0.00,--,--,0.00,awk and wget,2013-06-08 15:55:00,
2013-06-08 12:00:00,68.5,58.0,27.30,NNW,327,5.5,11.1,69,0.00,--,--,0.00,awk and wget,2013-06-08 16:00:00,
2013-06-08 12:10:00,68.1,55.9,27.30,SE,132,4.7,10.2,65,0.00,--,--,0.00,awk and wget,2013-06-08 16:10:00,
2013-06-08 12:15:00,68.6,55.0,27.30,NW,326,3.7,11.3,61,0.00,--,--,0.00,awk and wget,2013-06-08 16:15:00,
2013-06-08 12:20:00,69.4,56.4,27.30,NNW,328,4.5,11.3,63,0.00,--,--,0.00,awk and wget,2013-06-08 16:20:00,
2013-06-08 12:30:00,69.9,55.8,27.29,ESE,114,2.7,10.5,60,0.00,--,--,0.00,awk and wget,2013-06-08 16:30:00,
2013-06-08 12:35:00,69.4,54.4,27.30,NNW,329,4.9,10.7,58,0.00,--,--,0.00,awk and wget,2013-06-08 16:35:00,
2013-06-08 12:40:00,70.7,56.3,27.30,NNW,328,5.6,10.7,60,0.00,--,--,0.00,awk and wget,2013-06-08 16:40:00,
2013-06-08 12:45:00,71.8,56.6,27.29,East,86,1.4,10.7,58,0.00,--,--,0.00,awk and wget,2013-06-08 16:45:00,
2013-06-08 12:50:00,72.6,55.5,27.29,North,356,1.9,10.1,54,0.00,--,--,0.00,awk and wget,2013-06-08 16:50:00,
2013-06-08 13:00:00,72.8,56.1,27.29,NW,325,5.8,14.9,55,0.00,--,--,0.00,awk and wget,2013-06-08 17:00:00,
2013-06-08 13:10:00,74.4,57.9,27.29,NW,324,11.2,15.1,56,0.00,--,--,0.00,awk and wget,2013-06-08 17:10:00,
2013-06-08 13:15:00,73.4,55.2,27.29,NW,324,8.7,18.5,52,0.00,--,--,0.00,awk and wget,2013-06-08 17:15:00,
2013-06-08 13:20:00,72.2,55.2,27.29,NNW,327,5.2,18.5,55,0.00,--,--,0.00,awk and wget,2013-06-08 17:20:00,
2013-06-08 13:25:00,72.7,55.9,27.29,SE,132,3.7,18.5,55,0.00,--,--,0.00,awk and wget,2013-06-08 17:25:00,
2013-06-08 13:30:00,71.7,54.2,27.29,NNW,327,5.2,14.8,54,0.00,--,--,0.00,awk and wget,2013-06-08 17:30:00,
2013-06-08 13:35:00,71.4,54.1,27.29,NNW,331,1.7,11.6,54,0.00,--,--,0.00,awk and wget,2013-06-08 17:35:00,
2013-06-08 13:40:00,70.8,56.6,27.29,North,359,6.8,11.6,60,0.00,--,--,0.00,awk and wget,2013-06-08 17:40:00,
2013-06-08 13:45:00,71.2,55.2,27.29,North,7,4.5,10.2,56,0.00,--,--,0.00,awk and wget,2013-06-08 17:45:00,
2013-06-08 13:50:00,72.3,54.8,27.28,ENE,68,2.3,10.2,54,0.00,--,--,0.00,awk and wget,2013-06-08 17:50:00,
2013-06-08 13:55:00,72.1,53.0,27.29,NNW,339,5.2,11.9,50,0.00,--,--,0.00,awk and wget,2013-06-08 17:55:00,
2013-06-08 14:00:00,75.2,53.5,27.29,North,356,5.3,12.6,46,0.00,--,--,0.00,awk and wget,2013-06-08 18:00:00,
2013-06-08 14:10:00,74.9,52.8,27.28,NW,326,2.2,12.6,46,0.00,--,--,0.00,awk and wget,2013-06-08 18:10:00,
2013-06-08 14:15:00,74.4,51.2,27.29,East,90,1.0,14.5,44,0.00,--,--,0.00,awk and wget,2013-06-08 18:15:00,
2013-06-08 14:20:00,74.8,52.4,27.28,NW,324,12.7,14.5,45,0.00,--,--,0.00,awk and wget,2013-06-08 18:20:00,
2013-06-08 14:25:00,74.7,50.3,27.29,NNW,342,7.3,14.5,42,0.00,--,--,0.00,awk and wget,2013-06-08 18:25:00,
2013-06-08 14:30:00,74.4,50.6,27.28,NNW,327,9.4,13.9,43,0.00,--,--,0.00,awk and wget,2013-06-08 18:30:00,
2013-06-08 14:35:00,76.3,52.5,27.29,NW,325,6.5,14.9,43,0.00,--,--,0.00,awk and wget,2013-06-08 18:35:00,
2013-06-08 14:40:00,74.4,49.5,27.29,NNE,13,2.2,14.9,41,0.00,--,--,0.00,awk and wget,2013-06-08 18:40:00,
2013-06-08 14:45:00,74.5,50.8,27.29,NW,324,13.9,14.9,43,0.00,--,--,0.00,awk and wget,2013-06-08 18:45:00,
2013-06-08 14:50:00,74.8,51.1,27.29,NNW,330,4.8,13.8,43,0.00,--,--,0.00,awk and wget,2013-06-08 18:50:00,
2013-06-08 15:00:00,73.5,52.4,27.29,NW,326,2.6,13.8,47,0.00,--,--,0.00,awk and wget,2013-06-08 19:00:00,
2013-06-08 15:05:00,73.9,51.8,27.29,NNW,340,2.8,12.5,46,0.00,--,--,0.00,awk and wget,2013-06-08 19:05:00,
2013-06-08 15:10:00,75.0,51.7,27.29,SE,140,1.9,10.2,44,0.00,--,--,0.00,awk and wget,2013-06-08 19:10:00,
2013-06-08 15:15:00,75.2,54.7,27.29,ENE,78,1.5,10.2,48,0.00,--,--,0.00,awk and wget,2013-06-08 19:15:00,
2013-06-08 15:20:00,76.0,53.4,27.29,NNW,342,4.6,10.2,45,0.00,--,--,0.00,awk and wget,2013-06-08 19:20:00,
2013-06-08 15:25:00,76.3,52.9,27.29,NNW,336,8.9,10.5,44,0.00,--,--,0.00,awk and wget,2013-06-08 19:25:00,
2013-06-08 15:30:00,75.0,53.3,27.29,NNW,338,11.0,11.0,46,0.00,--,--,0.00,awk and wget,2013-06-08 19:30:00,
2013-06-08 15:35:00,75.6,52.3,27.29,NNW,328,8.2,12.1,44,0.00,--,--,0.00,awk and wget,2013-06-08 19:35:00,
2013-06-08 15:40:00,75.9,52.4,27.29,NNW,342,10.9,16.6,43,0.00,--,--,0.00,awk and wget,2013-06-08 19:40:00,
2013-06-08 15:45:00,75.8,52.7,27.29,North,6,6.8,16.6,44,0.00,--,--,0.00,awk and wget,2013-06-08 19:45:00,
2013-06-08 15:50:00,76.0,51.6,27.29,NNW,336,8.0,16.6,42,0.00,--,--,0.00,awk and wget,2013-06-08 19:50:00,
2013-06-08 15:55:00,76.4,51.7,27.29,NNW,339,6.9,19.0,42,0.00,--,--,0.00,awk and wget,2013-06-08 19:55:00,
2013-06-08 16:00:00,76.2,51.7,27.30,NNW,337,6.0,19.0,42,0.00,--,--,0.00,awk and wget,2013-06-08 20:00:00,
2013-06-08 16:05:00,76.5,53.3,27.30,NNW,327,8.6,19.0,44,0.00,--,--,0.00,awk and wget,2013-06-08 20:05:00,
2013-06-08 16:10:00,74.7,52.5,27.30,NNW,327,7.7,17.4,45,0.00,--,--,0.00,awk and wget,2013-06-08 20:10:00,
2013-06-08 16:15:00,74.4,52.4,27.30,NNW,329,7.1,17.4,46,0.00,--,--,0.00,awk and wget,2013-06-08 20:15:00,
2013-06-08 16:20:00,75.3,51.1,27.30,NNW,330,8.6,19.0,42,0.00,--,--,0.00,awk and wget,2013-06-08 20:20:00,
2013-06-08 16:25:00,75.8,52.9,27.30,NNW,330,9.1,19.0,44,0.00,--,--,0.00,awk and wget,2013-06-08 20:25:00,
2013-06-08 16:30:00,75.6,51.1,27.30,NW,326,8.1,19.0,42,0.00,--,--,0.00,awk and wget,2013-06-08 20:30:00,
2013-06-08 16:35:00,76.3,52.1,27.30,NNW,344,5.8,16.4,42,0.00,--,--,0.00,awk and wget,2013-06-08 20:35:00,
2013-06-08 16:40:00,76.1,52.2,27.30,North,350,7.1,16.4,43,0.00,--,--,0.00,awk and wget,2013-06-08 20:40:00,
2013-06-08 16:45:00,76.0,52.3,27.31,NNW,339,9.9,16.5,43,0.00,--,--,0.00,awk and wget,2013-06-08 20:45:00,
2013-06-08 16:50:00,75.8,52.1,27.31,North,1,6.1,16.5,43,0.00,--,--,0.00,awk and wget,2013-06-08 20:50:00,
2013-06-08 16:55:00,75.2,51.5,27.31,NNW,328,11.3,16.6,43,0.00,--,--,0.00,awk and wget,2013-06-08 20:55:00,
2013-06-08 17:00:00,74.7,51.9,27.31,NNW,335,8.4,18.4,44,0.00,--,--,0.00,awk and wget,2013-06-08 21:00:00,
2013-06-08 17:05:00,75.5,53.2,27.31,NNW,329,10.1,18.4,45,0.00,--,--,0.00,awk and wget,2013-06-08 21:05:00,
2013-06-08 17:10:00,75.1,51.9,27.31,NNW,330,7.8,18.4,44,0.00,--,--,0.00,awk and wget,2013-06-08 21:10:00,
2013-06-08 17:15:00,75.2,52.4,27.31,NNW,336,9.9,14.7,44,0.00,--,--,0.00,awk and wget,2013-06-08 21:15:00,
2013-06-08 17:20:00,75.2,51.5,27.31,NNW,327,8.7,25.9,43,0.00,--,--,0.00,awk and wget,2013-06-08 21:20:00,
2013-06-08 17:30:00,74.5,51.7,27.32,NNW,332,10.8,25.9,44,0.00,--,--,0.00,awk and wget,2013-06-08 21:30:00,
2013-06-08 17:35:00,75.9,53.4,27.32,NNW,344,7.5,15.8,45,0.00,--,--,0.00,awk and wget,2013-06-08 21:35:00,
2013-06-08 17:40:00,74.9,51.7,27.32,NNW,342,16.4,16.4,44,0.00,--,--,0.00,awk and wget,2013-06-08 21:40:00,
2013-06-08 17:45:00,74.6,51.0,27.33,NNW,343,9.0,16.4,43,0.00,--,--,0.00,awk and wget,2013-06-08 21:45:00,
2013-06-08 17:50:00,75.0,51.4,27.33,NNW,333,12.3,16.4,43,0.00,--,--,0.00,awk and wget,2013-06-08 21:50:00,
2013-06-08 18:00:00,74.3,51.7,27.34,NNW,346,7.3,18.9,45,0.00,--,--,0.00,awk and wget,2013-06-08 22:00:00,
2013-06-08 18:05:00,73.5,51.9,27.33,NNW,337,5.1,18.9,46,0.00,--,--,0.00,awk and wget,2013-06-08 22:05:00,
2013-06-08 18:10:00,73.7,51.3,27.33,North,1,10.2,18.9,45,0.00,--,--,0.00,awk and wget,2013-06-08 22:10:00,
2013-06-08 18:15:00,73.9,52.0,27.33,North,356,9.4,15.4,46,0.00,--,--,0.00,awk and wget,2013-06-08 22:15:00,
2013-06-08 18:20:00,74.1,51.7,27.33,NNW,346,10.2,15.4,45,0.00,--,--,0.00,awk and wget,2013-06-08 22:20:00,
2013-06-08 18:25:00,73.7,51.6,27.33,North,358,4.8,15.2,46,0.00,--,--,0.00,awk and wget,2013-06-08 22:25:00,
2013-06-08 18:30:00,73.4,52.6,27.34,North,1,11.3,15.9,48,0.00,--,--,0.00,awk and wget,2013-06-08 22:30:00,
2013-06-08 18:35:00,73.8,51.5,27.34,NNW,346,3.9,15.9,45,0.00,--,--,0.00,awk and wget,2013-06-08 22:35:00,
2013-06-08 18:40:00,73.5,52.5,27.34,NNW,344,8.0,15.9,47,0.00,--,--,0.00,awk and wget,2013-06-08 22:40:00,
2013-06-08 18:45:00,73.4,52.7,27.34,North,354,10.7,15.4,48,0.00,--,--,0.00,awk and wget,2013-06-08 22:45:00,
2013-06-08 18:50:00,73.0,52.3,27.34,North,355,8.4,15.4,48,0.00,--,--,0.00,awk and wget,2013-06-08 22:50:00,
2013-06-08 18:55:00,73.3,52.3,27.34,NNW,345,6.8,15.4,47,0.00,--,--,0.00,awk and wget,2013-06-08 22:55:00,
2013-06-08 19:00:00,73.4,52.3,27.34,North,356,4.5,13.6,47,0.00,--,--,0.00,awk and wget,2013-06-08 23:00:00,
2013-06-08 19:05:00,73.3,52.8,27.35,North,1,3.1,13.9,48,0.00,--,--,0.00,awk and wget,2013-06-08 23:05:00,
2013-06-08 19:10:00,73.4,53.7,27.35,NNW,344,7.3,13.9,49,0.00,--,--,0.00,awk and wget,2013-06-08 23:10:00,
2013-06-08 19:15:00,72.9,53.7,27.35,North,353,4.8,13.9,50,0.00,--,--,0.00,awk and wget,2013-06-08 23:15:00,
2013-06-08 19:20:00,72.8,52.5,27.35,North,350,4.0,13.7,48,0.00,--,--,0.00,awk and wget,2013-06-08 23:20:00,
2013-06-08 19:30:00,72.5,53.1,27.36,North,1,4.5,11.5,50,0.00,--,--,0.00,awk and wget,2013-06-08 23:30:00,
2013-06-08 19:35:00,71.9,52.9,27.36,North,358,6.5,9.4,51,0.00,--,--,0.00,awk and wget,2013-06-08 23:35:00,
2013-06-08 19:40:00,71.6,53.7,27.36,North,357,6.4,9.3,53,0.00,--,--,0.00,awk and wget,2013-06-08 23:40:00,
2013-06-08 19:45:00,71.0,54.9,27.36,NNE,16,4.1,8.9,56,0.00,--,--,0.00,awk and wget,2013-06-08 23:45:00,
2013-06-08 19:50:00,69.7,57.4,27.37,North,3,5.3,9.5,64,0.00,--,--,0.00,awk and wget,2013-06-08 23:50:00,
2013-06-08 19:55:00,68.5,57.9,27.37,NNW,348,5.0,9.5,68,0.00,--,--,0.00,awk and wget,2013-06-08 23:55:00,
2013-06-08 20:00:00,67.6,56.7,27.37,North,1,3.5,9.5,68,0.00,--,--,0.00,awk and wget,2013-06-09 00:00:00,
2013-06-08 20:05:00,66.4,56.5,27.37,North,3,5.6,8.7,70,0.00,--,--,0.00,awk and wget,2013-06-09 00:05:00,
2013-06-08 20:10:00,65.7,57.2,27.37,North,357,3.7,8.7,73,0.00,--,--,0.00,awk and wget,2013-06-09 00:10:00,
2013-06-08 20:15:00,64.8,57.6,27.37,North,354,3.5,8.7,77,0.00,--,--,0.00,awk and wget,2013-06-09 00:15:00,
2013-06-08 20:20:00,64.1,56.7,27.37,North,356,2.7,7.2,76,0.00,--,--,0.00,awk and wget,2013-06-09 00:20:00,
2013-06-08 20:25:00,63.8,56.5,27.37,NNW,348,3.2,7.2,77,0.00,--,--,0.00,awk and wget,2013-06-09 00:25:00,
2013-06-08 20:30:00,63.2,56.3,27.37,North,349,2.6,7.2,78,0.00,--,--,0.00,awk and wget,2013-06-09 00:30:00,
2013-06-08 20:35:00,62.6,56.0,27.37,North,350,0.4,6.2,78,0.00,--,--,0.00,awk and wget,2013-06-09 00:35:00,
2013-06-08 20:40:00,62.4,56.0,27.37,North,10,3.7,5.3,79,0.00,--,--,0.00,awk and wget,2013-06-09 00:40:00,
2013-06-08 20:45:00,61.7,56.7,27.38,NE,42,3.7,7.1,83,0.00,--,--,0.00,awk and wget,2013-06-09 00:45:00,
2013-06-08 20:50:00,60.9,56.7,27.38,East,87,2.9,7.1,86,0.00,--,--,0.00,awk and wget,2013-06-09 00:50:00,
2013-06-08 20:55:00,60.3,56.8,27.38,ENE,68,1.7,7.1,88,0.00,--,--,0.00,awk and wget,2013-06-09 00:55:00,
2013-06-08 21:00:00,60.3,57.0,27.39,NE,34,1.6,6.7,88,0.00,--,--,0.00,awk and wget,2013-06-09 01:00:00,
2013-06-08 21:05:00,59.9,56.7,27.39,NNE,16,2.4,5.4,89,0.00,--,--,0.00,awk and wget,2013-06-09 01:05:00,
2013-06-08 21:10:00,59.2,56.4,27.39,NNE,28,2.7,5.4,90,0.00,--,--,0.00,awk and wget,2013-06-09 01:10:00,
2013-06-08 21:15:00,59.2,56.1,27.39,NNE,18,3.1,5.3,89,0.00,--,--,0.00,awk and wget,2013-06-09 01:15:00,
2013-06-08 21:20:00,59.2,55.9,27.39,NNE,30,3.1,4.4,88,0.00,--,--,0.00,awk and wget,2013-06-09 01:20:00,
2013-06-08 21:25:00,58.7,56.1,27.39,East,95,2.5,6.2,91,0.00,--,--,0.00,awk and wget,2013-06-09 01:25:00,
2013-06-08 21:30:00,58.2,56.0,27.40,ESE,112,5.4,6.2,92,0.00,--,--,0.00,awk and wget,2013-06-09 01:30:00,
2013-06-08 21:35:00,57.9,56.0,27.40,ESE,111,5.6,6.2,93,0.00,--,--,0.00,awk and wget,2013-06-09 01:35:00,
2013-06-08 21:40:00,57.4,55.4,27.40,ESE,111,6.5,6.5,93,0.00,--,--,0.00,awk and wget,2013-06-09 01:40:00,
2013-06-08 21:45:00,56.7,54.8,27.40,ESE,107,2.7,4.2,93,0.00,--,--,0.00,awk and wget,2013-06-09 01:45:00,
2013-06-08 21:50:00,56.3,54.6,27.41,ENE,73,1.0,4.7,94,0.00,--,--,0.00,awk and wget,2013-06-09 01:50:00,
2013-06-08 21:55:00,56.1,54.6,27.41,ENE,77,1.1,5.3,94,0.00,--,--,0.00,awk and wget,2013-06-09 01:55:00,
2013-06-08 22:00:00,56.8,55.5,27.41,ENE,63,1.1,5.5,95,0.00,--,--,0.00,awk and wget,2013-06-09 02:00:00,
2013-06-08 22:05:00,56.9,55.7,27.41,NE,49,1.6,5.5,95,0.00,--,--,0.00,awk and wget,2013-06-09 02:05:00,
2013-06-08 22:10:00,56.4,55.2,27.42,North,6,1.9,5.5,95,0.00,--,--,0.00,awk and wget,2013-06-09 02:10:00,
2013-06-08 22:15:00,55.9,54.7,27.42,ENE,57,2.5,5.3,95,0.00,--,--,0.00,awk and wget,2013-06-09 02:15:00,
2013-06-08 22:20:00,55.6,54.4,27.42,East,83,3.3,5.3,95,0.00,--,--,0.00,awk and wget,2013-06-09 02:20:00,
2013-06-08 22:25:00,55.6,54.4,27.42,East,95,3.9,6.5,96,0.00,--,--,0.00,awk and wget,2013-06-09 02:25:00,
2013-06-08 22:30:00,55.9,54.9,27.42,East,99,1.5,6.5,96,0.00,--,--,0.00,awk and wget,2013-06-09 02:30:00,
2013-06-08 22:35:00,55.1,54.0,27.42,ESE,119,0.4,6.5,96,0.00,--,--,0.00,awk and wget,2013-06-09 02:35:00,
2013-06-08 22:40:00,54.5,53.5,27.43,ESE,119,0.1,5.7,96,0.00,--,--,0.00,awk and wget,2013-06-09 02:40:00,
2013-06-08 22:45:00,54.6,53.7,27.43,ESE,119,0.1,4.7,96,0.00,--,--,0.00,awk and wget,2013-06-09 02:45:00,
2013-06-08 22:50:00,54.6,53.7,27.43,ESE,123,0.9,4.7,96,0.00,--,--,0.00,awk and wget,2013-06-09 02:50:00,
2013-06-08 22:55:00,54.7,53.9,27.43,NE,41,0.4,5.4,97,0.00,--,--,0.00,awk and wget,2013-06-09 02:55:00,
2013-06-08 23:00:00,54.6,53.8,27.43,NNE,13,2.1,8.1,97,0.00,--,--,0.00,awk and wget,2013-06-09 03:00:00,
2013-06-08 23:05:00,54.5,53.7,27.43,NNE,13,1.5,8.4,97,0.00,--,--,0.00,awk and wget,2013-06-09 03:05:00,
2013-06-08 23:10:00,54.1,53.4,27.43,NNW,347,1.8,8.4,97,0.00,--,--,0.00,awk and wget,2013-06-09 03:10:00,
2013-06-08 23:15:00,54.0,53.3,27.43,NNW,342,2.5,8.4,97,0.00,--,--,0.00,awk and wget,2013-06-09 03:15:00,
2013-06-08 23:20:00,54.2,53.5,27.44,NNE,12,2.3,5.4,97,0.00,--,--,0.00,awk and wget,2013-06-09 03:20:00,
2013-06-08 23:25:00,53.8,53.1,27.43,ENE,71,3.7,5.3,97,0.00,--,--,0.00,awk and wget,2013-06-09 03:25:00,
2013-06-08 23:30:00,53.5,52.8,27.44,East,81,4.8,7.3,97,0.00,--,--,0.00,awk and wget,2013-06-09 03:30:00,
2013-06-08 23:35:00,53.2,52.6,27.44,East,82,2.9,9.0,97,0.00,--,--,0.00,awk and wget,2013-06-09 03:35:00,
2013-06-08 23:40:00,53.1,52.5,27.44,ENE,70,2.7,9.0,97,0.00,--,--,0.00,awk and wget,2013-06-09 03:40:00,
2013-06-08 23:45:00,53.2,52.6,27.44,NE,38,2.3,9.0,97,0.00,--,--,0.00,awk and wget,2013-06-09 03:45:00,
2013-06-08 23:50:00,53.0,52.4,27.44,NNE,29,2.9,5.8,97,0.00,--,--,0.00,awk and wget,2013-06-09 03:50:00,
2013-06-08 23:55:00,52.7,52.1,27.44,NE,34,3.1,6.1,97,0.00,--,--,0.00,awk and wget,2013-06-09 03:55:00,